DW5444 Weather Reports


time (UTC)temp
C
wind
direction
speed
KPH
gust
KPH
rain 1hr
cm
rain 24hr
cm
rain mn
cm
humidity
%
barometer
mb
20260905100023 8 75 3.2 3.2 0.00 0.00 0.00 84 1015.6
20260905094521 8 78 1.6 3.2 0.00 0.00 0.00 84 1015.4
20260905093020 7 71 3.2 4.8 0.00 0.00 0.00 83 1015.4
20260905091519 7 59 3.2 3.2 0.00 0.00 0.00 83 1015.4
20260905090018 8 66 3.2 4.8 0.00 0.00 0.00 80 1015.3
20260905084519 9 99 1.6 8.0 0.00 0.00 0.00 80 1015.0
20260905083016 10 76 0.0 3.2 0.00 0.00 0.00 78 1015.1
20260905081514 9 77 0.0 3.2 0.00 0.00 0.00 82 1015.0
20260905080012 9 152 0.0 4.8 0.00 0.00 0.00 83 1015.2
20260905074513 8 132 3.2 8.0 0.00 0.00 0.00 84 1015.2
20260905073010 8 96 0.0 9.7 0.00 0.00 0.00 82 1015.3
20260905071506 8 126 8.0 11.3 0.00 0.00 0.00 84 1015.2
20260905070005 7 75 1.6 4.8 0.00 0.00 0.00 81 1015.0
20260905064559 8 72 1.6 3.2 0.00 0.00 0.00 77 1014.7
20260905063059 9 57 0.0 1.6 0.00 0.00 0.00 77 1014.4
20260905061559 8 44 1.6 4.8 0.00 0.00 0.00 75 1014.3
20260905060056 10 73 0.0 3.2 0.00 0.00 0.00 72 1014.4
20260905054555 11 305 0.0 4.8 0.00 0.00 0.00 70 1014.4
20260905053135 11 251 8.0 12.9 0.00 0.00 0.00 70 1014.3
20260905051554 12 309 3.2 12.9 0.00 0.00 0.00 69 1014.3
20260905050054 12 256 14.5 19.3 0.00 0.00 0.00 65 1014.3
20260905044552 11 83 0.0 3.2 0.00 0.00 0.00 68 1014.1
20260905043050 12 83 3.2 4.8 0.00 0.00 0.00 63 1013.9
20260905041549 12 82 0.0 3.2 0.00 0.00 0.00 63 1013.9
20260905040047 12 129 0.0 1.6 0.00 0.00 0.00 60 1013.8
20260905034550 12 130 0.0 3.2 0.00 0.00 0.00 61 1013.7
20260905033057 13 105 0.0 3.2 0.00 0.00 0.00 60 1013.7
20260905031547 13 72 1.6 4.8 0.00 0.00 0.00 60 1013.7
20260905030044 13 64 3.2 4.8 0.00 0.00 0.00 61 1013.6
20260905024542 13 65 4.8 8.0 0.00 0.00 0.00 61 1013.4
20260905023043 13 98 4.8 6.4 0.00 0.00 0.00 59 1013.4
20260905021540 14 74 4.8 6.4 0.00 0.00 0.00 56 1013.4
20260905020039 15 62 4.8 8.0 0.00 0.00 0.00 52 1013.3
20260905014539 16 48 6.4 9.7 0.00 0.00 0.00 50 1013.1
20260905013038 17 56 6.4 16.1 0.00 0.00 0.00 48 1013.0
20260905011538 17 59 4.8 11.3 0.00 0.00 0.00 46 1012.8
20260905010036 17 43 0.0 8.0 0.00 0.00 0.00 44 1012.8
20260905004535 16 23 0.0 3.2 0.00 0.00 0.00 47 1012.8
20260905003035 16 317 3.2 6.4 0.00 0.00 0.00 46 1012.7
20260905001533 16 47 1.6 6.4 0.00 0.00 0.00 48 1012.6
20260905000034 17 50 1.6 8.0 0.00 0.00 0.00 47 1012.7
20260904234533 17 19 4.8 11.3 0.00 0.00 0.00 48 1012.6
20260904233032 17 341 3.2 14.5 0.00 0.00 0.00 49 1012.6
20260904231535 16 43 4.8 12.9 0.00 0.00 0.00 51 1012.6
20260904230030 16 319 4.8 8.0 0.00 0.00 0.00 50 1012.7
20260904224529 16 24 8.0 14.5 0.00 0.00 0.00 51 1012.7
20260904223030 16 60 4.8 12.9 0.00 0.00 0.00 50 1012.7
20260904221527 16 48 6.4 12.9 0.00 0.00 0.00 50 1012.8
20260904220027 16 48 4.8 8.0 0.00 0.00 0.00 47 1012.9
20260904214539 16 303 0.0 4.8 0.00 0.00 0.00 45 1012.9
20260904213033 16 252 1.6 8.0 0.00 0.00 0.00 44 1012.8
20260904211526 17 309 4.8 12.9 0.00 0.00 0.00 45 1012.7
20260904210028 16 270 6.4 9.7 0.00 0.00 0.00 47 1012.7
20260904204524 16 260 3.2 8.0 0.00 0.00 0.00 49 1012.7
20260904203020 16 39 1.6 4.8 0.00 0.00 0.00 51 1012.8
20260904201519 16 322 4.8 8.0 0.00 0.00 0.00 50 1012.8
20260904200019 16 173 4.8 16.1 0.00 0.00 0.00 50 1012.8
20260904194515 16 112 1.6 9.7 0.00 0.00 0.00 49 1012.9
20260904193014 15 291 3.2 11.3 0.00 0.00 0.00 51 1012.9
20260904191512 15 315 0.0 11.3 0.00 0.00 0.00 53 1013.1
20260904190016 15 28 8.0 11.3 0.00 0.00 0.00 53 1013.1
20260904184510 15 47 4.8 9.7 0.00 0.00 0.00 53 1013.1
20260904183010 15 59 0.0 6.4 0.00 0.00 0.00 51 1013.1
20260904181505 15 43 3.2 8.0 0.00 0.00 0.00 54 1013.0
20260904180003 15 161 4.8 9.7 0.00 0.00 0.00 54 1013.1
20260904174502 14 52 1.6 6.4 0.00 0.00 0.00 55 1013.1
20260904173001 14 104 3.2 11.3 0.00 0.00 0.00 56 1013.3
20260904171609 14 192 3.2 9.7 0.00 0.00 0.00 56 1013.1
20260904170056 13 146 3.2 11.3 0.00 0.00 0.00 58 1012.9
20260904164557 13 133 4.8 11.3 0.00 0.00 0.00 59 1012.8
20260904163054 13 234 3.2 8.0 0.00 0.00 0.00 58 1012.7
20260904161550 13 215 3.2 9.7 0.00 0.00 0.00 59 1012.7
20260904160050 13 249 4.8 8.0 0.00 0.00 0.00 60 1012.6
20260904154547 12 254 1.6 8.0 0.00 0.00 0.00 62 1012.6
20260904153046 12 241 4.8 8.0 0.00 0.00 0.00 61 1012.6
20260904151544 12 219 4.8 8.0 0.00 0.00 0.00 63 1012.5
20260904144537 11 114 3.2 6.4 0.00 0.00 0.00 67 1012.2
20260904143033 10 121 0.0 6.4 0.00 0.00 0.00 71 1012.0
20260904141529 9 111 4.8 8.0 0.00 0.00 0.00 72 1011.8
20260904140024 -17 0.0 0.0 0.00 0.00 0.00 1011.6
20260904134538 -17 0.0 0.0 0.00 0.00 0.00 1011.6
20260904133016 -17 0.0 0.0 0.00 0.00 0.00 1011.4
20260904131518 -17 0.0 0.0 0.00 0.00 0.00 1011.3
20260904130012 -17 0.0 0.0 0.00 0.00 0.00 1011.3
20260904124503 -17 0.0 0.0 0.00 0.00 0.00 1011.3
20260904123059 -17 0.0 0.0 0.00 0.00 0.00 1011.3
20260904121554 -17 0.0 0.0 0.00 0.00 0.00 1011.3
20260904120104 7 86 3.2 9.7 0.00 0.00 0.00 77 1011.2
20260904114554 7 126 4.8 9.7 0.00 0.00 0.00 78 1011.2
20260904113051 7 136 6.4 11.3 0.00 0.00 0.00 79 1010.9
20260904111548 7 125 3.2 8.0 0.00 0.00 0.00 78 1010.8
20260904110045 7 80 3.2 8.0 0.00 0.00 0.00 78 1010.6
20260904104543 7 81 8.0 9.7 0.00 0.00 0.00 78 1010.5
20260904103042 7 104 8.0 11.3 0.00 0.00 0.00 79 1010.6
20260904101541 7 127 4.8 8.0 0.00 0.00 0.00 79 1010.4